Regional Weather Roundup
Issued by NWS

Home | Current Version | Previous Version | Text Only | Print | Product List | Glossary On
Versions: 1 2 3 4 5 6 7 8 9 10 11 12 13 14 15 16 17 18 19 20 21 22 23 24 25 26 27 28 29 30 31 32 33 34 35 36 37 38 39 40 41 42 43 44 45 46 47 48 49 50
000
ASUS45 KPSR 051410
RWRAZ

ARIZONA HOURLY REGIONAL WEATHER ROUNDUP
NATIONAL WEATHER SERVICE PHOENIX AZ
700 AM MST SAT SEP 05 2015

NOTE: FAIR INDICATES FEW OR NO CLOUDS BELOW 12,000 FEET WITH NO
SIGNIFICANT WEATHER AND/OR OBSTRUCTIONS TO VISIBILITY.

AZZ001>003-036-051500-
NORTHWEST ARIZONA

CITY           SKY/WX    TMP DP  RH WIND       PRES   REMARKS
BULLHEAD CITY  CLEAR     82  55  39 S8        29.83R
KINGMAN        CLEAR     66  54  65 E9        29.98R
$$

AZZ004>008-015-016-018-051500-
NORTH CENTRAL ARIZONA

CITY           SKY/WX    TMP DP  RH WIND       PRES   REMARKS
GRAND CANYON   SUNNY     53  50  89 CALM      30.18S
WILLIAMS       MOSUNNY   57  54  88 SE9       30.24R
PRESCOTT       PTSUNNY   63  57  81 SE6       30.12R
FLAGSTAFF      PTSUNNY   56  55  97 VRB3      30.22R
PAYSON         PTSUNNY   63  55  77 CALM      30.15R
PAGE           SUNNY     69  53  56 S6        30.02R
$$

AZZ009>014-017-051500-
NORTHEAST ARIZONA

CITY           SKY/WX    TMP DP  RH WIND       PRES   REMARKS
WINSLOW        PTSUNNY   63  58  83 SE6       30.12R
SAINT JOHNS    PTSUNNY   59  56  89 CALM      30.17R
WINDOW ROCK    CLOUDY    59  55  87 CALM      30.24R
SHOW LOW       CLOUDY    57  52  82 S6        30.22R
$$

AZZ023-051500-
GREATER PHOENIX AREA

CITY           SKY/WX    TMP DP  RH WIND       PRES   REMARKS
PHOENIX        PTSUNNY   82  67  60 E6        29.87R
BUCKEYE        MOSUNNY   75  66  73 CALM      29.88R
GLENDALE       PTSUNNY   81  66  61 CALM      29.89
LUKE AFB       MOSUNNY   80  67  64 S3        29.87R
DEER VALLEY    PTSUNNY   80  64  58 CALM      29.89R
SCOTTSDALE     PTSUNNY   80  65  59 CALM      29.91R
MESA-FALCON    CLOUDY    79  63  57 CALM      29.89R
MESA-GATEWAY   PTSUNNY   77  64  65 SE5       29.91R
CHANDLER       PTSUNNY   79  68  69 CALM      29.89R
$$

AZZ027-028-051500-
SOUTHWEST MARICOPA COUNTY AND PINAL COUNTY

CITY           SKY/WX    TMP DP  RH WIND       PRES   REMARKS
CASA GRANDE    CLOUDY    77  66  69 E3        29.89R
GILA BEND      FAIR      76  67  75 E1        29.86R
$$

AZZ503-504-507>509-051500-
SOUTHEAST ARIZONA

CITY           SKY/WX    TMP DP  RH WIND       PRES   REMARKS
TUCSON         RAIN      71  67  87 S8        30.02R
DAVIS-MONTHAN  CLOUDY    71  66  86 S7        30.00R
RYAN FIELD     SUNNY     73  70  88 S7        29.99R
NOGALES        CLOUDY    67  64  90 CALM      30.07R
SIERRA VISTA   CLOUDY    64  62  93 VRB1      30.12R
DOUGLAS        CLOUDY    65  63  93 CALM      30.08R
SAFFORD        CLOUDY    69  65  86 CALM      30.03R
$$

AZZ020-021-025-026-031-051500-
SOUTHWEST ARIZONA

CITY           SKY/WX    TMP DP  RH WIND       PRES   REMARKS
YUMA           CLEAR     82  73  74 SE8       29.80R
$$

CAZ031-033-041-043-047-048-061-051500-
SOUTHERN CALIFORNIA

CITY           SKY/WX    TMP DP  RH WIND       PRES   REMARKS
DOWNTOWN L.A.  MOCLDY    67  58  72 CALM      29.90R
L.A. AIRPORT   MOCLDY    65  59  81 E6        29.90R
SAN DIEGO      MOCLDY    69  57  65 NW3       29.90R
BURBANK        CLEAR     62  54  74 CALM      29.90S
ONTARIO        PTCLDY    60  55  83 NW3       29.92R
RIVERSIDE      PTCLDY    60  54  80 CALM      29.92R
PALM SPRINGS   CLEAR     73  50  44 N5        29.83R
EL CENTRO NAS  CLEAR     78  64  61 N7        29.81R
IMPERIAL       CLEAR     79  69  71 N5        29.78R
BLYTHE         CLEAR     80  72  76 S8        29.82R
NEEDLES        CLEAR     83  60  45 SW10      29.84R
$$

NVZ020-UTZ003-051500-
SOUTHERN NEVADA-UTAH

CITY           SKY/WX    TMP DP  RH WIND       PRES   REMARKS
LAS VEGAS      PTCLDY    75  37  25 S5        29.83R
SALT LAKE CITY MOSUNNY   72  39  30 S18G24    29.87R
$$

NMZ009-TXZ055-051500-
NEW MEXICO-WEST TEXAS

CITY           SKY/WX    TMP DP  RH WIND       PRES   REMARKS
ALBUQUERQUE    PTSUNNY   64  59  83 N3        30.18R
EL PASO        PTSUNNY   77  55  46 N6        30.05R
$$


........................KEY........................
SKY/WX - SKY CONDITION/WEATHER
TMP    - TEMPERATURE IN FAHRENHEIT
DP     - DEW POINT IN FAHRENHEIT
RH     - RELATIVE HUMIDITY IN PERCENT
WIND   - DIRECTION AND SPEED IN MILES PER HOUR (MPH)
VRB    - VARIABLE WIND DIRECTION
PRES   - MEAN SEA LEVEL PRESSURE IN INCHES OF MERCURY
         F - FALLING PRESSURE   R - RISING PRESSURE
         S - STEADY PRESSURE
VSB    - VISIBILITY IN MILES
HX     - HEAT INDEX IN FAHRENHEIT
WCI    - WIND CHILL INDEX IN FAHRENHEIT
TC     - TEMPERATURE IN CELSIUS WHICH IS ALSO KNOWN AS
         TEMPERATURE IN CENTIGRADE
AFB    - AIR FORCE BASE
         LUKE AFB IS LUKE AIR FORCE BASE
         DAVIS-MONTHAN IS DAVIS-MONTHAN AIR FORCE BASE
NAS    - NAVAL AIR STATION
         EL CENTRO NAS IS EL CENTRO NAVAL AIR STATION
N/A    - NOT AVAILABLE




USA.gov is the U.S. government's official web portal to all federal, state and local government web resources and services.